• In Deutschland
  • Länderverzeichnis
  • Für 7 Tage
  • Wassertemperatur
  • Satellitenkarten
  • Wetterkarte
  • Widgets
  • user-avatar
    Anmelden

    Stündliche Wetter Sewan

    Heute, 23 Mai, Mittwoch

    Zeit Temperatur Niederschläge Wind Luftdruck Luftfeuchtigkeit
    00:00 +14°C° 0,3 mm 1 m/S 645 mmHg 85%
    01:00 +14°C° 0,2 mm 1 m/S 645 mmHg 85%
    02:00 +14°C° 0,2 mm 1 m/S 645 mmHg 86%
    03:00 +13°C° 0 mm 1 m/S 644 mmHg 88%
    04:00 +13°C° 0,1 mm 1 m/S 644 mmHg 85%
    05:00 +14°C° 0,1 mm 1 m/S 645 mmHg 83%
    06:00 +14°C° 0,1 mm 1 m/S 645 mmHg 81%
    07:00 +16°C° 0 mm 1 m/S 645 mmHg 74%
    08:00 +17°C° 0 mm 2 m/S 646 mmHg 68%
    09:00 +18°C° 0 mm 2 m/S 646 mmHg 61%
    10:00 +19°C° 0,2 mm 2 m/S 646 mmHg 58%
    11:00 +20°C° 0,2 mm 2 m/S 646 mmHg 55%
    12:00 +21°C° 0,2 mm 2 m/S 646 mmHg 53%
    13:00 +21°C° 0,5 mm 3 m/S 646 mmHg 53%
    14:00 +22°C° 0,5 mm 3 m/S 646 mmHg 53%
    15:00 +22°C° 0,5 mm 3 m/S 645 mmHg 53%
    16:00 +21°C° 0,5 mm 3 m/S 645 mmHg 55%
    17:00 +20°C° 0,5 mm 3 m/S 645 mmHg 58%
    18:00 +20°C° 0,5 mm 3 m/S 645 mmHg 61%
    19:00 +18°C° 0,3 mm 3 m/S 645 mmHg 64%
    20:00 +16°C° 0,3 mm 3 m/S 644 mmHg 67%
    21:00 +14°C° 0,3 mm 3 m/S 644 mmHg 70%
    22:00 +14°C° 0,1 mm 2 m/S 644 mmHg 69%
    23:00 +14°C° 0,1 mm 2 m/S 644 mmHg 69%

    Morgen, 24 Mai, Donnerstag

    Zeit Temperatur Niederschläge Wind Luftdruck Luftfeuchtigkeit
    00:00 +13°C° 0,1 mm 2 m/S 644 mmHg 69%
    01:00 +13°C° 0,1 mm 2 m/S 643 mmHg 69%
    02:00 +12°C° 0,1 mm 2 m/S 643 mmHg 69%
    03:00 +12°C° 0,1 mm 2 m/S 643 mmHg 69%
    04:00 +13°C° 0 mm 2 m/S 643 mmHg 68%
    05:00 +13°C° 0 mm 2 m/S 643 mmHg 67%
    06:00 +14°C° 0 mm 2 m/S 643 mmHg 66%
    07:00 +15°C° 0 mm 2 m/S 644 mmHg 59%
    08:00 +18°C° 0 mm 1 m/S 644 mmHg 52%
    09:00 +20°C° 0 mm 1 m/S 644 mmHg 45%
    10:00 +20°C° 0 mm 2 m/S 644 mmHg 43%
    11:00 +21°C° 0 mm 2 m/S 644 mmHg 41%
    12:00 +23°C° 0 mm 2 m/S 644 mmHg 39%
    13:00 +23°C° 0 mm 2 m/S 644 mmHg 40%
    14:00 +22°C° 0 mm 3 m/S 643 mmHg 40%
    15:00 +24°C° 0 mm 3 m/S 643 mmHg 41%
    16:00 +22°C° 0,1 mm 3 m/S 643 mmHg 46%
    17:00 +21°C° 0,1 mm 2 m/S 642 mmHg 51%
    18:00 +20°C° 0,1 mm 2 m/S 642 mmHg 55%
    19:00 +18°C° 0,1 mm 2 m/S 642 mmHg 59%
    20:00 +17°C° 0,1 mm 2 m/S 641 mmHg 63%
    21:00 +15°C° 0,1 mm 2 m/S 641 mmHg 66%
    22:00 +15°C° 0 mm 2 m/S 641 mmHg 67%
    23:00 +14°C° 0 mm 2 m/S 641 mmHg 67%

    übermorgen, 25 Mai, Freitag

    Zeit Temperatur Niederschläge Wind Luftdruck Luftfeuchtigkeit
    00:00 +13°C° 0 mm 2 m/S 640 mmHg 67%
    01:00 +13°C° 0 mm 1 m/S 640 mmHg 67%
    02:00 +13°C° 0 mm 1 m/S 640 mmHg 66%
    03:00 +12°C° 0 mm 1 m/S 639 mmHg 66%
    04:00 +13°C° 0 mm 1 m/S 640 mmHg 65%
    05:00 +14°C° 0 mm 1 m/S 640 mmHg 65%
    06:00 +15°C° 0 mm 1 m/S 640 mmHg 64%
    07:00 +16°C° 0 mm 1 m/S 640 mmHg 60%
    08:00 +19°C° 0 mm 1 m/S 641 mmHg 55%
    09:00 +21°C° 0 mm 1 m/S 641 mmHg 51%
    10:00 +21°C° 0,2 mm 1 m/S 641 mmHg 50%
    11:00 +21°C° 0,2 mm 2 m/S 641 mmHg 48%
    12:00 +23°C° 0,2 mm 2 m/S 641 mmHg 47%
    13:00 +23°C° 0,8 mm 2 m/S 641 mmHg 47%
    14:00 +24°C° 0,8 mm 2 m/S 640 mmHg 47%
    15:00 +24°C° 0,8 mm 2 m/S 640 mmHg 47%
    16:00 +23°C° 0,6 mm 2 m/S 640 mmHg 51%
    17:00 +21°C° 0,6 mm 2 m/S 640 mmHg 54%
    18:00 +21°C° 0,6 mm 1 m/S 640 mmHg 58%
    19:00 +20°C° 0,3 mm 1 m/S 639 mmHg 61%
    20:00 +18°C° 0,3 mm 1 m/S 639 mmHg 64%
    21:00 +16°C° 0,3 mm 1 m/S 639 mmHg 67%
    22:00 +16°C° 0,2 mm 1 m/S 639 mmHg 68%
    23:00 +15°C° 0,2 mm 1 m/S 639 mmHg 69%

    26 Mai, Samstag

    Zeit Temperatur Niederschläge Wind Luftdruck Luftfeuchtigkeit
    00:00 +15°C° 0,2 mm 1 m/S 639 mmHg 70%
    01:00 +15°C° 0,2 mm 1 m/S 639 mmHg 70%
    02:00 +14°C° 0,2 mm 1 m/S 639 mmHg 71%
    03:00 +14°C° 0,2 mm 1 m/S 639 mmHg 72%
    04:00 +14°C° 0,1 mm 1 m/S 639 mmHg 71%
    05:00 +15°C° 0,1 mm 1 m/S 640 mmHg 70%
    06:00 +16°C° 0,1 mm 1 m/S 640 mmHg 69%
    07:00 +18°C° 0,1 mm 1 m/S 640 mmHg 63%
    08:00 +20°C° 0,1 mm 1 m/S 641 mmHg 58%
    09:00 +22°C° 0,1 mm 1 m/S 641 mmHg 52%
    10:00 +21°C° 0,3 mm 2 m/S 641 mmHg 50%
    11:00 +23°C° 0,3 mm 2 m/S 641 mmHg 48%
    12:00 +24°C° 0,3 mm 2 m/S 641 mmHg 46%
    13:00 +24°C° 0,9 mm 2 m/S 641 mmHg 46%
    14:00 +24°C° 0,9 mm 2 m/S 641 mmHg 46%
    15:00 +25°C° 0,9 mm 2 m/S 641 mmHg 46%
    16:00 +24°C° 1,1 mm 2 m/S 641 mmHg 50%
    17:00 +23°C° 1,1 mm 2 m/S 641 mmHg 55%
    18:00 +22°C° 1,1 mm 1 m/S 640 mmHg 59%
    19:00 +20°C° 0,9 mm 2 m/S 641 mmHg 63%
    20:00 +18°C° 0,9 mm 2 m/S 641 mmHg 66%
    21:00 +17°C° 0,9 mm 2 m/S 641 mmHg 69%
    22:00 +16°C° 0,9 mm 2 m/S 641 mmHg 72%
    23:00 +16°C° 0,9 mm 2 m/S 641 mmHg 75%

    27 Mai, Sonntag

    Zeit Temperatur Niederschläge Wind Luftdruck Luftfeuchtigkeit
    00:00 +15°C° 0,9 mm 1 m/S 642 mmHg 78%
    01:00 +15°C° 0,2 mm 1 m/S 642 mmHg 78%
    02:00 +15°C° 0,2 mm 1 m/S 642 mmHg 77%
    03:00 +15°C° 0,2 mm 1 m/S 642 mmHg 77%
    04:00 +15°C° 0,1 mm 1 m/S 642 mmHg 76%
    05:00 +16°C° 0,1 mm 1 m/S 643 mmHg 75%
    06:00 +16°C° 0,1 mm 1 m/S 643 mmHg 74%
    07:00 +18°C° 0 mm 1 m/S 644 mmHg 69%
    08:00 +20°C° 0 mm 1 m/S 644 mmHg 63%
    09:00 +20°C° 0 mm 2 m/S 645 mmHg 57%
    10:00 +21°C° 0,1 mm 2 m/S 645 mmHg 55%
    11:00 +23°C° 0,1 mm 2 m/S 646 mmHg 52%
    12:00 +24°C° 0,1 mm 2 m/S 646 mmHg 49%
    13:00 +24°C° 0,2 mm 2 m/S 646 mmHg 49%
    14:00 +24°C° 0,2 mm 2 m/S 646 mmHg 49%
    15:00 +24°C° 0,2 mm 2 m/S 646 mmHg 50%
    16:00 +23°C° 0,2 mm 2 m/S 645 mmHg 54%
    17:00 +21°C° 0,2 mm 3 m/S 645 mmHg 58%
    18:00 +20°C° 0,2 mm 3 m/S 645 mmHg 62%
    19:00 +19°C° 0,1 mm 3 m/S 645 mmHg 67%
    20:00 +18°C° 0,1 mm 3 m/S 645 mmHg 72%
    21:00 +16°C° 0,1 mm 3 m/S 646 mmHg 77%
    22:00 +16°C° 0 mm 3 m/S 645 mmHg 78%
    23:00 +15°C° 0 mm 2 m/S 645 mmHg 79%

    28 Mai, Montag

    Zeit Temperatur Niederschläge Wind Luftdruck Luftfeuchtigkeit
    00:00 +15°C° 0 mm 2 m/S 645 mmHg 79%
    01:00 +14°C° 0 mm 2 m/S 645 mmHg 79%
    02:00 +14°C° 0 mm 2 m/S 645 mmHg 78%
    03:00 +13°C° 0 mm 1 m/S 644 mmHg 77%
    04:00 +14°C° 0 mm 1 m/S 645 mmHg 73%
    05:00 +15°C° 0 mm 1 m/S 645 mmHg 70%
    06:00 +16°C° 0 mm 1 m/S 645 mmHg 66%
    07:00 +19°C° 0 mm 1 m/S 645 mmHg 60%
    08:00 +20°C° 0 mm 2 m/S 646 mmHg 53%
    09:00 +23°C° 0 mm 2 m/S 646 mmHg 47%
    10:00 +24°C° 0 mm 2 m/S 646 mmHg 44%
    11:00 +25°C° 0 mm 2 m/S 645 mmHg 41%
    12:00 +26°C° 0 mm 2 m/S 645 mmHg 38%
    13:00 +27°C° 0,1 mm 2 m/S 645 mmHg 38%
    14:00 +27°C° 0,1 mm 2 m/S 645 mmHg 38%
    15:00 +27°C° 0,1 mm 2 m/S 644 mmHg 38%
    16:00 +26°C° 0,5 mm 2 m/S 644 mmHg 44%
    17:00 +26°C° 0,5 mm 2 m/S 644 mmHg 49%
    18:00 +25°C° 0,5 mm 2 m/S 644 mmHg 54%
    19:00 +23°C° 0,9 mm 2 m/S 643 mmHg 59%
    20:00 +20°C° 0,9 mm 2 m/S 643 mmHg 65%
    21:00 +19°C° 0,9 mm 1 m/S 643 mmHg 71%
    22:00 +17°C° 0,4 mm 2 m/S 643 mmHg 73%
    23:00 +17°C° 0,4 mm 2 m/S 643 mmHg 75%
    Mehr zeigen